Location: Narvik
(68.4360°N, 17.4370°E)
Time: 23:09:58
(UTC+02:00)

Envisat - Visible Passes

Search period start: 17 October 2019 00:00
Search period end: 27 October 2019 00:00
Orbit: 764 x 766 km, 98.1° (Epoch: 17 October)

Date Brightness Start Highest point End Pass type
(mag) Time Alt. Az. Time Alt. Az. Time Alt. Az.
17 Oct 5.8 06:40:21 10° NNE 06:44:27 24° E 06:48:32 10° SE visible
17 Oct 3.2 18:08:56 10° SSE 18:14:03 82° WSW 18:19:11 10° NNW visible
17 Oct 5.1 19:49:24 10° SSW 19:53:48 29° W 19:58:13 10° NNW visible
18 Oct 6.1 06:03:56 10° NE 06:07:05 16° ENE 06:10:12 10° ESE visible
18 Oct 4.4 19:11:49 10° SSW 19:16:39 42° W 19:21:31 10° NNW visible
18 Oct 6.0 20:54:11 10° WSW 20:57:04 15° WNW 20:59:57 10° NW visible
19 Oct 6.5 05:28:26 10° NE 05:29:33 11° ENE 05:30:40 10° E visible
19 Oct 5.3 07:05:46 10° NNE 07:10:18 31° E 07:14:48 10° SSE visible
19 Oct 3.6 18:34:35 10° S 18:39:39 63° WSW 18:44:44 10° NNW visible
19 Oct 5.6 20:15:44 10° SW 20:19:40 22° W 20:23:37 10° NNW visible
20 Oct 5.9 06:29:10 10° NNE 06:33:02 21° E 06:36:52 10° SE visible
20 Oct 3.1 17:57:39 10° SSE 18:02:46 89° ENE 18:07:54 10° NNW visible
20 Oct 4.9 19:37:51 10° SSW 19:42:24 32° W 19:47:00 10° NNW visible
20 Oct 6.3 21:21:37 10° W 21:23:07 11° WNW 21:24:37 10° NW visible
21 Oct 6.2 05:52:52 10° NE 05:55:36 14° ENE 05:58:20 10° ESE visible
21 Oct 4.1 19:00:23 10° S 19:05:18 47° W 19:10:15 10° NNW visible
21 Oct 5.9 20:42:21 10° WSW 20:45:36 17° WNW 20:48:52 10° NW visible
22 Oct 5.4 06:54:32 10° NNE 06:58:54 28° E 07:03:14 10° SE visible
22 Oct 3.4 18:23:14 10° SSE 18:28:20 71° WSW 18:33:27 10° NNW visible
22 Oct 5.4 20:04:05 10° SW 20:08:14 25° W 20:12:25 10° NNW visible
23 Oct 6.0 06:18:00 10° NE 06:21:35 19° E 06:25:10 10° ESE visible
23 Oct 3.0 17:46:23 10° SSE 17:51:30 81° ENE 17:56:37 10° NNW visible
23 Oct 4.7 19:26:21 10° SSW 19:31:02 36° W 19:35:45 10° NNW visible
23 Oct 6.1 21:09:25 10° W 21:11:37 13° WNW 21:13:49 10° NW visible
24 Oct 6.3 05:41:54 10° NE 05:44:07 13° ENE 05:46:21 10° E visible
24 Oct 4.9 07:19:58 10° NNE 07:24:42 36° E 07:29:24 10° SSE visible
24 Oct 3.9 18:48:58 10° S 18:53:58 53° WSW 18:58:59 10° NNW visible
24 Oct 5.8 20:30:35 10° WSW 20:34:09 19° WNW 20:37:43 10° NW visible
25 Oct 5.6 06:43:18 10° NNE 06:47:29 25° E 06:51:38 10° SE visible
25 Oct 3.2 18:11:55 10° SSE 18:17:02 79° WSW 18:22:10 10° NNW visible
25 Oct 5.2 19:52:29 10° SW 19:56:50 27° W 20:01:11 10° NNW visible
26 Oct 6.0 06:06:51 10° NE 06:10:08 17° ENE 06:13:24 10° ESE visible
26 Oct 3.0 17:35:09 10° SE 17:40:14 73° ENE 17:45:20 10° NNW visible
26 Oct 4.4 19:14:52 10° SSW 19:19:40 40° W 19:24:29 10° NNW visible
26 Oct 6.0 20:57:24 10° WSW 21:00:08 14° WNW 21:02:50 10° NW visible
